Yatton Keynell, United Kingdom

11:56 PM BST on April 24, 2019 (GMT +0100)
Yatton Keynell

Weather History for 03740 - July, 2000

Change the Weather History Date:

Monday, July 24, 2000

  Actual Average Record
Temperature  
Mean Temperature 55 °F -  
Max Temperature 59 °F 68 °F - ()
Min Temperature 51 °F 53 °F - ()
Degree Days  
Heating Degree Days 10    
Growing Degree Days 5 (Base 50)    
Moisture  
Dew Point 51 °F    
Average Humidity 83    
Maximum Humidity 100    
Minimum Humidity 72    
Precipitation  
Precipitation 0.00 in 0.08 in - ()
Sea Level Pressure  
Sea Level Pressure 29.85 in    
Wind  
Wind Speed 12 mph ()    
Max Wind Speed 18 mph    
Max Gust Speed -    
Visibility 5.9 miles    
Events      
T = Trace of Precipitation, MM = Missing Value Source: Averaged Metar Reports

Daily Weather History Graph

Daily Weather History Graph

Search for Another Location

Airport or City:

Astronomy

Jul. 24, 2000 Rise Set
Actual Time 5:20 AM BST 9:07 PM BST
Civil Twilight 4:37 AM BST 9:49 PM BST
Nautical Twilight 3:38 AM BST 10:48 PM BST
Astronomical Twilight 1:58 AM BST 12:23 AM BST
Moon 12:17 AM BST 1:44 PM BST
Length of Visible Light 17h 12m
Length of Day
15h 47m
Waning Gibbous, 50% of the Moon is Illuminated
Jul 24
Waning Gibbous
Jul 24
Last Quarter
Jul 31
New
Aug 7
First Quarter
Aug 15
Full

Hourly Weather History & Observations

Time (BST) Temp. Dew Point Humidity Pressure Visibility Wind Dir Wind Speed Gust Speed Precip Events Conditions
12:50 AM 57.2 °F 50.0 °F 77% 29.92 in 6.2 mi NE 18.4 mph - N/A   Mostly Cloudy
1:50 AM 55.4 °F 50.0 °F 82% 29.89 in 6.2 mi NNE 16.1 mph - N/A   Mostly Cloudy
2:50 AM 55.4 °F 50.0 °F 82% 29.92 in 6.2 mi NE 13.8 mph - N/A   Mostly Cloudy
3:50 AM 55.4 °F 50.0 °F 82% 29.89 in 6.2 mi NE 15.0 mph - N/A   Mostly Cloudy
4:50 AM 53.6 °F 51.8 °F 94% 29.89 in 6.2 mi NNE 16.1 mph - N/A   Mostly Cloudy
5:50 AM 53.6 °F 51.8 °F 94% 29.89 in 4.3 mi NE 15.0 mph - N/A   Light Drizzle
6:50 AM 53.6 °F 51.8 °F 94% 29.89 in 3.1 mi NNE 15.0 mph - N/A   Light Drizzle
7:50 AM 51.8 °F 51.8 °F 100% 29.89 in 3.7 mi NNE 12.7 mph - N/A   Light Drizzle
8:50 AM 53.6 °F 51.8 °F 94% 29.86 in 6.2 mi NNE 12.7 mph - N/A   Light Drizzle
9:50 AM 53.6 °F 50.0 °F 88% 29.86 in 6.2 mi NNE 15.0 mph - N/A   Light Drizzle
10:50 AM 55.4 °F 50.0 °F 82% 29.86 in 6.2 mi NNE 17.3 mph - N/A   Mostly Cloudy
11:50 AM 55.4 °F 50.0 °F 82% 29.83 in 6.2 mi NNE 13.8 mph - N/A   Overcast
1:50 PM 57.2 °F 50.0 °F 77% 29.83 in 6.2 mi NNE 12.7 mph - N/A   Mostly Cloudy
2:50 PM 57.2 °F 50.0 °F 77% 29.83 in 6.2 mi NNE 11.5 mph - N/A   Mostly Cloudy
3:50 PM 57.2 °F 50.0 °F 77% 29.83 in 6.2 mi NNE 11.5 mph - N/A   Mostly Cloudy
4:50 PM 57.2 °F 50.0 °F 77% 29.80 in 6.2 mi NE 6.9 mph - N/A   Mostly Cloudy
5:50 PM 59.0 °F 50.0 °F 72% 29.80 in 6.2 mi North 5.8 mph - N/A   Overcast
6:50 PM 59.0 °F 50.0 °F 72% 29.80 in 6.2 mi NNE 5.8 mph - N/A   Overcast
7:50 PM 59.0 °F 51.8 °F 77% 29.80 in 6.2 mi North 4.6 mph - N/A   Mostly Cloudy
8:50 PM 59.0 °F 51.8 °F 77% 29.80 in 6.2 mi North 4.6 mph - N/A   Overcast
9:50 PM 57.2 °F 51.8 °F 82% 29.80 in 6.2 mi North 4.6 mph - N/A   Overcast
10:50 PM 57.2 °F 51.8 °F 82% 29.80 in 6.2 mi WNW 5.8 mph - N/A   Overcast
11:50 PM 57.2 °F 51.8 °F 82% 29.80 in 6.2 mi NW 5.8 mph - N/A   Overcast